Year,Month,Day,Hour,Minute,Value (Times are PST for temperature in C)
2011,04,12,00,00,3.30
2011,04,12,00,01,3.40
2011,04,12,00,02,3.40
2011,04,12,00,03,3.50
2011,04,12,00,04,3.50
2011,04,12,00,05,3.60
2011,04,12,00,06,3.60
2011,04,12,00,07,3.60
2011,04,12,00,08,3.60
2011,04,12,00,09,3.60
2011,04,12,00,10,3.60
2011,04,12,00,11,3.50
2011,04,12,00,12,3.50
2011,04,12,00,13,3.50
2011,04,12,00,14,3.50
2011,04,12,00,15,3.40
2011,04,12,00,16,3.40
2011,04,12,00,17,3.40
2011,04,12,00,18,3.30
2011,04,12,00,19,3.40
2011,04,12,00,20,3.40
2011,04,12,00,21,3.40
2011,04,12,00,22,3.40
2011,04,12,00,23,3.40
2011,04,12,00,24,3.40
2011,04,12,00,25,3.40
2011,04,12,00,26,3.40
2011,04,12,00,27,3.40
2011,04,12,00,28,3.40
2011,04,12,00,29,3.40
2011,04,12,00,30,3.40
2011,04,12,00,31,3.50
2011,04,12,00,32,3.50
2011,04,12,00,33,3.50
2011,04,12,00,34,3.50
2011,04,12,00,35,3.50
2011,04,12,00,36,3.60
2011,04,12,00,37,3.60
2011,04,12,00,38,3.60
2011,04,12,00,39,3.60
2011,04,12,00,40,3.60
2011,04,12,00,41,3.60
2011,04,12,00,42,3.60
2011,04,12,00,43,3.60
2011,04,12,00,44,3.60
2011,04,12,00,45,3.60
2011,04,12,00,46,3.60
2011,04,12,00,47,3.60
2011,04,12,00,48,3.60
2011,04,12,00,49,3.60
2011,04,12,00,50,3.60
2011,04,12,00,51,3.60
2011,04,12,00,52,3.60
2011,04,12,00,53,3.70
2011,04,12,00,54,3.70
2011,04,12,00,55,3.70
2011,04,12,00,56,3.70
2011,04,12,00,57,3.70
2011,04,12,00,58,3.70
2011,04,12,00,59,3.70
2011,04,12,01,00,3.80
2011,04,12,01,01,3.80
2011,04,12,01,02,3.80
2011,04,12,01,03,3.80
2011,04,12,01,04,3.80
2011,04,12,01,05,3.80
2011,04,12,01,06,3.80
2011,04,12,01,07,3.90
2011,04,12,01,08,3.90
2011,04,12,01,09,3.90
2011,04,12,01,10,3.90
2011,04,12,01,11,3.90
2011,04,12,01,12,3.90
2011,04,12,01,13,3.90
2011,04,12,01,14,3.90
2011,04,12,01,15,3.90
2011,04,12,01,16,3.90
2011,04,12,01,17,3.80
2011,04,12,01,18,3.80
2011,04,12,01,19,3.80
2011,04,12,01,20,3.80
2011,04,12,01,21,3.80
2011,04,12,01,22,3.80
2011,04,12,01,23,3.70
2011,04,12,01,24,3.70
2011,04,12,01,25,3.70
2011,04,12,01,26,3.60
2011,04,12,01,27,3.60
2011,04,12,01,28,3.60
2011,04,12,01,29,3.50
2011,04,12,01,30,3.50
2011,04,12,01,31,3.50
2011,04,12,01,32,3.50
2011,04,12,01,33,3.40
2011,04,12,01,34,3.40
2011,04,12,01,35,3.40
2011,04,12,01,36,3.40
2011,04,12,01,37,3.40
2011,04,12,01,38,3.40
2011,04,12,01,39,3.40
2011,04,12,01,40,3.40
2011,04,12,01,41,3.40
2011,04,12,01,42,3.40
2011,04,12,01,43,3.40
2011,04,12,01,44,3.50
2011,04,12,01,45,3.50
2011,04,12,01,46,3.50
2011,04,12,01,47,3.60
2011,04,12,01,48,3.60
2011,04,12,01,49,3.60
2011,04,12,01,50,3.60
2011,04,12,01,51,3.70
2011,04,12,01,52,3.70
2011,04,12,01,53,3.70
2011,04,12,01,54,3.70
2011,04,12,01,55,3.60
2011,04,12,01,56,3.60
2011,04,12,01,57,3.60
2011,04,12,01,58,3.60
2011,04,12,01,59,3.60
2011,04,12,02,00,3.60
2011,04,12,02,01,3.60
2011,04,12,02,02,3.60
2011,04,12,02,03,3.60
2011,04,12,02,04,3.60
2011,04,12,02,05,3.60
2011,04,12,02,06,3.60
2011,04,12,02,07,3.60
2011,04,12,02,08,3.60
2011,04,12,02,09,3.60
2011,04,12,02,10,3.60
2011,04,12,02,11,3.60
2011,04,12,02,12,3.60
2011,04,12,02,13,3.60
2011,04,12,02,14,3.60
2011,04,12,02,15,3.60
2011,04,12,02,16,3.60
2011,04,12,02,17,3.60
2011,04,12,02,18,3.60
2011,04,12,02,19,3.60
2011,04,12,02,20,3.60
2011,04,12,02,21,3.60
2011,04,12,02,22,3.60
2011,04,12,02,23,3.60
2011,04,12,02,24,3.60
2011,04,12,02,25,3.50
2011,04,12,02,26,3.50
2011,04,12,02,27,3.50
2011,04,12,02,28,3.50
2011,04,12,02,29,3.50
2011,04,12,02,30,3.50
2011,04,12,02,31,3.50
2011,04,12,02,32,3.50
2011,04,12,02,33,3.50
2011,04,12,02,34,3.50
2011,04,12,02,35,3.50
2011,04,12,02,36,3.50
2011,04,12,02,37,3.50
2011,04,12,02,38,3.40
2011,04,12,02,39,3.30
2011,04,12,02,40,3.30
2011,04,12,02,41,3.20
2011,04,12,02,42,3.10
2011,04,12,02,43,3.10
2011,04,12,02,44,3.10
2011,04,12,02,45,3.00
2011,04,12,02,46,2.90
2011,04,12,02,47,2.90
2011,04,12,02,48,2.90
2011,04,12,02,49,2.90
2011,04,12,02,50,2.80
2011,04,12,02,51,2.80
2011,04,12,02,52,2.70
2011,04,12,02,53,2.70
2011,04,12,02,54,2.70
2011,04,12,02,55,2.70
2011,04,12,02,56,2.60
2011,04,12,02,57,2.60
2011,04,12,02,58,2.60
2011,04,12,02,59,2.50
2011,04,12,03,00,2.50
2011,04,12,03,01,2.50
2011,04,12,03,02,2.40
2011,04,12,03,03,2.40
2011,04,12,03,04,2.40
2011,04,12,03,05,2.30
2011,04,12,03,06,2.30
2011,04,12,03,07,2.30
2011,04,12,03,08,2.30
2011,04,12,03,09,2.30
2011,04,12,03,10,2.20
2011,04,12,03,11,2.20
2011,04,12,03,12,2.20
2011,04,12,03,13,2.20
2011,04,12,03,14,2.20
2011,04,12,03,15,2.20
2011,04,12,03,16,2.30
2011,04,12,03,17,2.30
2011,04,12,03,18,2.30
2011,04,12,03,19,2.40
2011,04,12,03,20,2.40
2011,04,12,03,21,2.40
2011,04,12,03,22,2.40
2011,04,12,03,23,2.40
2011,04,12,03,24,2.40
2011,04,12,03,25,2.40
2011,04,12,03,26,2.40
2011,04,12,03,27,2.50
2011,04,12,03,28,2.50
2011,04,12,03,29,2.50
2011,04,12,03,30,2.50
2011,04,12,03,31,2.50
2011,04,12,03,32,2.50
2011,04,12,03,33,2.50
2011,04,12,03,34,2.50
2011,04,12,03,35,2.50
2011,04,12,03,36,2.60
2011,04,12,03,37,2.60
2011,04,12,03,38,2.60
2011,04,12,03,39,2.60
2011,04,12,03,40,2.60
2011,04,12,03,41,2.70
2011,04,12,03,42,2.70
2011,04,12,03,43,2.60
2011,04,12,03,44,2.60
2011,04,12,03,45,2.60
2011,04,12,03,46,2.60
2011,04,12,03,47,2.60
2011,04,12,03,48,2.60
2011,04,12,03,49,2.60
2011,04,12,03,50,2.60
2011,04,12,03,51,2.50
2011,04,12,03,52,2.50
2011,04,12,03,53,2.50
2011,04,12,03,54,2.50
2011,04,12,03,55,2.50
2011,04,12,03,56,2.50
2011,04,12,03,57,2.50
2011,04,12,03,58,2.60
2011,04,12,03,59,2.60
2011,04,12,04,00,2.70
2011,04,12,04,01,2.70
2011,04,12,04,02,2.70
2011,04,12,04,03,2.70
2011,04,12,04,04,2.70
2011,04,12,04,05,2.80
2011,04,12,04,06,2.80
2011,04,12,04,07,2.90
2011,04,12,04,08,2.90
2011,04,12,04,09,2.90
2011,04,12,04,10,2.90
2011,04,12,04,11,2.90
2011,04,12,04,12,2.90
2011,04,12,04,13,2.90
2011,04,12,04,14,2.90
2011,04,12,04,15,2.90
2011,04,12,04,16,2.90
2011,04,12,04,17,2.90
2011,04,12,04,18,3.00
2011,04,12,04,19,3.10
2011,04,12,04,20,3.10
2011,04,12,04,21,3.10
2011,04,12,04,22,3.20
2011,04,12,04,23,3.20
2011,04,12,04,24,3.20
2011,04,12,04,25,3.20
2011,04,12,04,26,3.20
2011,04,12,04,27,3.30
2011,04,12,04,28,3.30
2011,04,12,04,29,3.30
2011,04,12,04,30,3.30
2011,04,12,04,31,3.30
2011,04,12,04,32,3.30
2011,04,12,04,33,3.30
2011,04,12,04,34,3.40
2011,04,12,04,35,3.40
2011,04,12,04,36,3.40
2011,04,12,04,37,3.50
2011,04,12,04,38,3.40
2011,04,12,04,39,3.40
2011,04,12,04,40,3.40
2011,04,12,04,41,3.30
2011,04,12,04,42,3.30
2011,04,12,04,43,3.30
2011,04,12,04,44,3.30
2011,04,12,04,45,3.30
2011,04,12,04,46,3.30
2011,04,12,04,47,3.30
2011,04,12,04,48,3.30
2011,04,12,04,49,3.30
2011,04,12,04,50,3.30
2011,04,12,04,51,3.30
2011,04,12,04,52,3.20
2011,04,12,04,53,3.20
2011,04,12,04,54,3.20
2011,04,12,04,55,3.20
2011,04,12,04,56,3.10
2011,04,12,04,57,3.10
2011,04,12,04,58,3.10
2011,04,12,04,59,3.10
2011,04,12,05,00,3.10
2011,04,12,05,01,3.10
2011,04,12,05,02,3.10
2011,04,12,05,03,3.20
2011,04,12,05,04,3.20
2011,04,12,05,05,3.20
2011,04,12,05,06,3.20
2011,04,12,05,07,3.20
2011,04,12,05,08,3.20
2011,04,12,05,09,3.30
2011,04,12,05,10,3.30
2011,04,12,05,11,3.30
2011,04,12,05,12,3.30
2011,04,12,05,13,3.30
2011,04,12,05,14,3.30
2011,04,12,05,15,3.30
2011,04,12,05,16,3.30
2011,04,12,05,17,3.30
2011,04,12,05,18,3.30
2011,04,12,05,19,3.30
2011,04,12,05,20,3.40
2011,04,12,05,21,3.40
2011,04,12,05,22,3.40
2011,04,12,05,23,3.40
2011,04,12,05,24,3.40
2011,04,12,05,25,3.40
2011,04,12,05,26,3.40
2011,04,12,05,27,3.40
2011,04,12,05,28,3.40
2011,04,12,05,29,3.40
2011,04,12,05,30,3.40
2011,04,12,05,31,3.40
2011,04,12,05,32,3.40
2011,04,12,05,33,3.40
2011,04,12,05,34,3.40
2011,04,12,05,35,3.40
2011,04,12,05,36,3.40
2011,04,12,05,37,3.40
2011,04,12,05,38,3.40
2011,04,12,05,39,3.40
2011,04,12,05,40,3.40
2011,04,12,05,41,3.40
2011,04,12,05,42,3.40
2011,04,12,05,43,3.50
2011,04,12,05,44,3.50
2011,04,12,05,45,3.50
2011,04,12,05,46,3.50
2011,04,12,05,47,3.50
2011,04,12,05,48,3.50
2011,04,12,05,49,3.50
2011,04,12,05,50,3.50
2011,04,12,05,51,3.50
2011,04,12,05,52,3.50
2011,04,12,05,53,3.50
2011,04,12,05,54,3.50
2011,04,12,05,55,3.60
2011,04,12,05,56,3.60
2011,04,12,05,57,3.60
2011,04,12,05,58,3.60
2011,04,12,05,59,3.60
2011,04,12,06,00,3.60
2011,04,12,06,01,3.60
2011,04,12,06,02,3.60
2011,04,12,06,03,3.60
2011,04,12,06,04,3.60
2011,04,12,06,05,3.60
2011,04,12,06,06,3.60
2011,04,12,06,07,3.60
2011,04,12,06,08,3.60
2011,04,12,06,09,3.60
2011,04,12,06,10,3.60
2011,04,12,06,11,3.60
2011,04,12,06,12,3.60
2011,04,12,06,13,3.50
2011,04,12,06,14,3.50
2011,04,12,06,15,3.50
2011,04,12,06,16,3.50
2011,04,12,06,17,3.50
2011,04,12,06,18,3.50
2011,04,12,06,19,3.50
2011,04,12,06,20,3.50
2011,04,12,06,21,3.50
2011,04,12,06,22,3.50
2011,04,12,06,23,3.50
2011,04,12,06,24,3.40
2011,04,12,06,25,3.40
2011,04,12,06,26,3.40
2011,04,12,06,27,3.40
2011,04,12,06,28,3.40
2011,04,12,06,29,3.40
2011,04,12,06,30,3.40
2011,04,12,06,31,3.40
2011,04,12,06,32,3.40
2011,04,12,06,33,3.40
2011,04,12,06,34,3.40
2011,04,12,06,35,3.40
2011,04,12,06,36,3.40
2011,04,12,06,37,3.40
2011,04,12,06,38,3.40
2011,04,12,06,39,3.40
2011,04,12,06,40,3.30
2011,04,12,06,41,3.40
2011,04,12,06,42,3.40
2011,04,12,06,43,3.40
2011,04,12,06,44,3.40
2011,04,12,06,45,3.40
2011,04,12,06,46,3.40
2011,04,12,06,47,3.40
2011,04,12,06,48,3.40
2011,04,12,06,49,3.40
2011,04,12,06,50,3.40
2011,04,12,06,51,3.40
2011,04,12,06,52,3.40
2011,04,12,06,53,3.40
2011,04,12,06,54,3.40
2011,04,12,06,55,3.40
2011,04,12,06,56,3.40
2011,04,12,06,57,3.40
2011,04,12,06,58,3.40
2011,04,12,06,59,3.40
2011,04,12,07,00,3.40
2011,04,12,07,01,3.40
2011,04,12,07,02,3.40
2011,04,12,07,03,3.40
2011,04,12,07,04,3.40
2011,04,12,07,05,3.40
2011,04,12,07,06,3.50
2011,04,12,07,07,3.50
2011,04,12,07,08,3.50
2011,04,12,07,09,3.50
2011,04,12,07,10,3.50
2011,04,12,07,11,3.50
2011,04,12,07,12,3.50
2011,04,12,07,13,3.50
2011,04,12,07,14,3.50
2011,04,12,07,15,3.50
2011,04,12,07,16,3.50
2011,04,12,07,17,3.50
2011,04,12,07,18,3.50
2011,04,12,07,19,3.50
2011,04,12,07,20,3.50
2011,04,12,07,21,3.50
2011,04,12,07,22,3.50
2011,04,12,07,23,3.50
2011,04,12,07,24,3.50
2011,04,12,07,25,3.50
2011,04,12,07,26,3.60
2011,04,12,07,27,3.60
2011,04,12,07,28,3.60
2011,04,12,07,29,3.60
2011,04,12,07,30,3.60
2011,04,12,07,31,3.60
2011,04,12,07,32,3.70
2011,04,12,07,33,3.70
2011,04,12,07,34,3.70
2011,04,12,07,35,3.70
2011,04,12,07,36,3.70
2011,04,12,07,37,3.80
2011,04,12,07,38,3.80
2011,04,12,07,39,3.80
2011,04,12,07,40,3.80
2011,04,12,07,41,3.80
2011,04,12,07,42,3.80
2011,04,12,07,43,3.80
2011,04,12,07,44,3.80
2011,04,12,07,45,3.80
2011,04,12,07,46,3.90
2011,04,12,07,47,3.90
2011,04,12,07,48,3.90
2011,04,12,07,49,4.00
2011,04,12,07,50,4.00
2011,04,12,07,51,4.00
2011,04,12,07,52,4.10
2011,04,12,07,53,4.10
2011,04,12,07,54,4.10
2011,04,12,07,55,4.20
2011,04,12,07,56,4.20
2011,04,12,07,57,4.20
2011,04,12,07,58,4.20
2011,04,12,07,59,4.30
2011,04,12,08,00,4.30
2011,04,12,08,01,4.30
2011,04,12,08,02,4.40
2011,04,12,08,03,4.40
2011,04,12,08,04,4.40
2011,04,12,08,05,4.50
2011,04,12,08,06,4.50
2011,04,12,08,07,4.50
2011,04,12,08,08,4.50
2011,04,12,08,09,4.50
2011,04,12,08,10,4.60
2011,04,12,08,11,4.60
2011,04,12,08,12,4.60
2011,04,12,08,13,4.60
2011,04,12,08,14,4.60
2011,04,12,08,15,4.60
2011,04,12,08,16,4.70
2011,04,12,08,17,4.70
2011,04,12,08,18,4.70
2011,04,12,08,19,4.80
2011,04,12,08,20,4.80
2011,04,12,08,21,4.80
2011,04,12,08,22,4.90
2011,04,12,08,23,4.90
2011,04,12,08,24,4.90
2011,04,12,08,25,4.90
2011,04,12,08,26,4.90
2011,04,12,08,27,4.90
2011,04,12,08,28,4.90
2011,04,12,08,29,4.90
2011,04,12,08,30,4.90
2011,04,12,08,31,4.90
2011,04,12,08,32,4.90
2011,04,12,08,33,4.90
2011,04,12,08,34,4.90
2011,04,12,08,35,4.90
2011,04,12,08,36,4.90
2011,04,12,08,37,4.90
2011,04,12,08,38,4.90
2011,04,12,08,39,5.10
2011,04,12,08,40,5.10
2011,04,12,08,41,5.10
2011,04,12,08,42,5.10
2011,04,12,08,43,5.10
2011,04,12,08,44,5.10
2011,04,12,08,45,5.10
2011,04,12,08,46,5.10
2011,04,12,08,47,5.20
2011,04,12,08,48,5.10
2011,04,12,08,49,5.10
2011,04,12,08,50,5.20
2011,04,12,08,51,5.20
2011,04,12,08,52,5.20
2011,04,12,08,53,5.20
2011,04,12,08,54,5.20
2011,04,12,08,55,5.20
2011,04,12,08,56,5.20
2011,04,12,08,57,5.20
2011,04,12,08,58,5.20
2011,04,12,08,59,5.20
2011,04,12,09,00,5.20
2011,04,12,09,01,5.20
2011,04,12,09,02,5.20
2011,04,12,09,03,5.30
2011,04,12,09,04,5.30
2011,04,12,09,05,5.30
2011,04,12,09,06,5.30
2011,04,12,09,07,5.30
2011,04,12,09,08,5.30
2011,04,12,09,09,5.30
2011,04,12,09,10,5.30
2011,04,12,09,11,5.30
2011,04,12,09,12,5.30
2011,04,12,09,13,5.40
2011,04,12,09,14,5.40
2011,04,12,09,15,5.40
2011,04,12,09,16,5.40
2011,04,12,09,17,5.40
2011,04,12,09,18,5.40
2011,04,12,09,19,5.40
2011,04,12,09,20,5.50
2011,04,12,09,21,5.50
2011,04,12,09,22,5.50
2011,04,12,09,23,5.50
2011,04,12,09,24,5.50
2011,04,12,09,25,5.50
2011,04,12,09,26,5.50
2011,04,12,09,27,5.50
2011,04,12,09,28,5.50
2011,04,12,09,29,5.40
2011,04,12,09,30,5.40
2011,04,12,09,31,5.40
2011,04,12,09,32,5.40
2011,04,12,09,33,5.40
2011,04,12,09,34,5.40
2011,04,12,09,35,5.40
2011,04,12,09,36,5.40
2011,04,12,09,37,5.40
2011,04,12,09,38,5.40
2011,04,12,09,39,5.40
2011,04,12,09,40,5.40
2011,04,12,09,41,5.40
2011,04,12,09,42,5.40
2011,04,12,09,43,5.40
2011,04,12,09,44,5.40
2011,04,12,09,45,5.40
2011,04,12,09,46,5.40
2011,04,12,09,47,5.40
2011,04,12,09,48,5.40
2011,04,12,09,49,5.40
2011,04,12,09,50,5.40
2011,04,12,09,51,5.40
2011,04,12,09,52,5.40
2011,04,12,09,53,5.40
2011,04,12,09,54,5.50
2011,04,12,09,55,5.50
2011,04,12,09,56,5.50
2011,04,12,09,57,5.50
2011,04,12,09,58,5.50
2011,04,12,09,59,5.50
2011,04,12,10,00,5.60
2011,04,12,10,01,5.60
2011,04,12,10,02,5.60
2011,04,12,10,03,5.60
2011,04,12,10,04,5.60
2011,04,12,10,05,5.60
2011,04,12,10,06,5.60
2011,04,12,10,07,5.60
2011,04,12,10,08,5.70
2011,04,12,10,09,5.70
2011,04,12,10,10,5.70
2011,04,12,10,11,5.70
2011,04,12,10,12,5.70
2011,04,12,10,13,5.80
2011,04,12,10,14,5.80
2011,04,12,10,15,5.80
2011,04,12,10,16,5.90
2011,04,12,10,17,6.00
2011,04,12,10,18,6.00
2011,04,12,10,19,6.10
2011,04,12,10,20,6.10
2011,04,12,10,21,6.20
2011,04,12,10,22,6.20
2011,04,12,10,23,6.20
2011,04,12,10,24,6.20
2011,04,12,10,25,6.20
2011,04,12,10,26,6.20
2011,04,12,10,27,6.20
2011,04,12,10,28,6.30
2011,04,12,10,29,6.30
2011,04,12,10,30,6.30
2011,04,12,10,31,6.40
2011,04,12,10,32,6.40
2011,04,12,10,33,6.30
2011,04,12,10,34,6.30
2011,04,12,10,35,6.30
2011,04,12,10,36,6.30
2011,04,12,10,37,6.30
2011,04,12,10,38,6.30
2011,04,12,10,39,6.40
2011,04,12,10,40,6.40
2011,04,12,10,41,6.50
2011,04,12,10,42,6.60
2011,04,12,10,43,6.60
2011,04,12,10,44,6.70
2011,04,12,10,45,6.80
2011,04,12,10,46,6.80
2011,04,12,10,47,6.90
2011,04,12,10,48,6.90
2011,04,12,10,49,6.90
2011,04,12,10,50,7.00
2011,04,12,10,51,7.10
2011,04,12,10,52,7.10
2011,04,12,10,53,7.10
2011,04,12,10,54,7.10
2011,04,12,10,55,7.00
2011,04,12,10,56,6.90
2011,04,12,10,57,6.80
2011,04,12,10,58,6.70
2011,04,12,10,59,6.70
2011,04,12,11,00,6.70
2011,04,12,11,01,6.60
2011,04,12,11,02,6.60
2011,04,12,11,03,6.60
2011,04,12,11,04,6.60
2011,04,12,11,05,6.60
2011,04,12,11,06,6.50
2011,04,12,11,07,6.40
2011,04,12,11,08,6.40
2011,04,12,11,09,6.40
2011,04,12,11,10,6.40
2011,04,12,11,11,6.40
2011,04,12,11,12,6.40
2011,04,12,11,13,6.40
2011,04,12,11,14,6.40
2011,04,12,11,15,6.40
2011,04,12,11,16,6.40
2011,04,12,11,17,6.40
2011,04,12,11,18,6.40
2011,04,12,11,19,6.50
2011,04,12,11,20,6.60
2011,04,12,11,21,6.60
2011,04,12,11,22,6.60
2011,04,12,11,23,6.50
2011,04,12,11,24,6.40
2011,04,12,11,25,6.40
2011,04,12,11,26,6.40
2011,04,12,11,27,6.50
2011,04,12,11,28,6.60
2011,04,12,11,29,6.60
2011,04,12,11,30,6.70
2011,04,12,11,31,6.70
2011,04,12,11,32,6.80
2011,04,12,11,33,6.80
2011,04,12,11,34,6.80
2011,04,12,11,35,6.90
2011,04,12,11,36,7.00
2011,04,12,11,37,7.00
2011,04,12,11,38,6.90
2011,04,12,11,39,6.90
2011,04,12,11,40,6.90
2011,04,12,11,41,6.90
2011,04,12,11,42,6.90
2011,04,12,11,43,6.80
2011,04,12,11,44,6.80
2011,04,12,11,45,6.80
2011,04,12,11,46,6.80
2011,04,12,11,47,6.80
2011,04,12,11,48,6.80
2011,04,12,11,49,6.80
2011,04,12,11,50,6.90
2011,04,12,11,51,6.80
2011,04,12,11,52,6.80
2011,04,12,11,53,6.90
2011,04,12,11,54,6.90
2011,04,12,11,55,6.90
2011,04,12,11,56,6.90
2011,04,12,11,57,7.00
2011,04,12,11,58,7.00
2011,04,12,11,59,7.10
2011,04,12,12,00,7.20
2011,04,12,12,01,7.30
2011,04,12,12,02,7.30
2011,04,12,12,03,7.40
2011,04,12,12,04,7.40
2011,04,12,12,05,7.50
2011,04,12,12,06,7.60
2011,04,12,12,07,7.70
2011,04,12,12,08,7.70
2011,04,12,12,09,7.80
2011,04,12,12,10,7.80
2011,04,12,12,11,7.90
2011,04,12,12,12,7.90
2011,04,12,12,13,7.90
2011,04,12,12,14,8.00
2011,04,12,12,15,8.10
2011,04,12,12,16,8.10
2011,04,12,12,17,8.10
2011,04,12,12,18,8.20
2011,04,12,12,19,8.30
2011,04,12,12,20,8.30
2011,04,12,12,21,8.30
2011,04,12,12,22,8.30
2011,04,12,12,23,8.40
2011,04,12,12,24,8.50
2011,04,12,12,25,8.60
2011,04,12,12,26,8.50
2011,04,12,12,27,8.60
2011,04,12,12,28,8.50
2011,04,12,12,29,8.50
2011,04,12,12,30,8.50
2011,04,12,12,31,8.50
2011,04,12,12,32,8.60
2011,04,12,12,33,8.60
2011,04,12,12,34,8.70
2011,04,12,12,35,8.70
2011,04,12,12,36,8.80
2011,04,12,12,37,8.90
2011,04,12,12,38,8.90
2011,04,12,12,39,8.80
2011,04,12,12,40,8.80
2011,04,12,12,41,8.80
2011,04,12,12,42,8.90
2011,04,12,12,43,8.90
2011,04,12,12,44,8.90
2011,04,12,12,45,8.80
2011,04,12,12,46,8.80
2011,04,12,12,47,8.80
2011,04,12,12,48,8.70
2011,04,12,12,49,8.70
2011,04,12,12,50,8.70
2011,04,12,12,51,8.70
2011,04,12,12,52,8.70
2011,04,12,12,53,8.70
2011,04,12,12,54,8.70
2011,04,12,12,55,8.70
2011,04,12,12,56,8.70
2011,04,12,12,57,8.70
2011,04,12,12,58,8.70
2011,04,12,12,59,8.70
2011,04,12,13,00,8.70
2011,04,12,13,01,8.70
2011,04,12,13,02,8.80
2011,04,12,13,03,8.90
2011,04,12,13,04,8.80
2011,04,12,13,05,8.80
2011,04,12,13,06,8.70
2011,04,12,13,07,8.60
2011,04,12,13,08,8.60
2011,04,12,13,09,8.60
2011,04,12,13,10,8.60
2011,04,12,13,11,8.60
2011,04,12,13,12,8.70
2011,04,12,13,13,8.80
2011,04,12,13,14,8.80
2011,04,12,13,15,8.80
2011,04,12,13,16,8.90
2011,04,12,13,17,9.00
2011,04,12,13,18,9.10
2011,04,12,13,19,9.20
2011,04,12,13,20,9.10
2011,04,12,13,21,9.00
2011,04,12,13,22,9.00
2011,04,12,13,23,9.00
2011,04,12,13,24,9.00
2011,04,12,13,25,9.10
2011,04,12,13,26,9.20
2011,04,12,13,27,9.20
2011,04,12,13,28,9.20
2011,04,12,13,29,9.30
2011,04,12,13,30,9.30
2011,04,12,13,31,9.40
2011,04,12,13,32,9.40
2011,04,12,13,33,9.40
2011,04,12,13,34,9.40
2011,04,12,13,35,9.40
2011,04,12,13,36,9.30
2011,04,12,13,37,9.10
2011,04,12,13,38,9.10
2011,04,12,13,39,9.10
2011,04,12,13,40,9.10
2011,04,12,13,41,9.20
2011,04,12,13,42,9.10
2011,04,12,13,43,9.10
2011,04,12,13,44,9.10
2011,04,12,13,45,9.10
2011,04,12,13,46,9.10
2011,04,12,13,47,9.00
2011,04,12,13,48,9.00
2011,04,12,13,49,9.10
2011,04,12,13,50,9.20
2011,04,12,13,51,9.20
2011,04,12,13,52,9.30
2011,04,12,13,53,9.40
2011,04,12,13,54,9.50
2011,04,12,13,55,9.50
2011,04,12,13,56,9.40
2011,04,12,13,57,9.50
2011,04,12,13,58,9.50
2011,04,12,13,59,9.60
2011,04,12,14,00,9.60
2011,04,12,14,01,9.60
2011,04,12,14,02,9.60
2011,04,12,14,03,9.70
2011,04,12,14,04,9.70
2011,04,12,14,05,9.80
2011,04,12,14,06,10.00
2011,04,12,14,07,10.10
2011,04,12,14,08,10.20
2011,04,12,14,09,10.10
2011,04,12,14,10,10.20
2011,04,12,14,11,10.10
2011,04,12,14,12,10.10
2011,04,12,14,13,10.10
2011,04,12,14,14,10.20
2011,04,12,14,15,10.10
2011,04,12,14,16,10.10
2011,04,12,14,17,10.10
2011,04,12,14,18,10.10
2011,04,12,14,19,10.10
2011,04,12,14,20,9.90
2011,04,12,14,21,9.90
2011,04,12,14,22,10.00
2011,04,12,14,23,10.10
2011,04,12,14,24,10.10
2011,04,12,14,25,10.10
2011,04,12,14,26,10.10
2011,04,12,14,27,10.20
2011,04,12,14,28,10.10
2011,04,12,14,29,10.10
2011,04,12,14,30,9.90
2011,04,12,14,31,9.80
2011,04,12,14,32,9.70
2011,04,12,14,33,9.70
2011,04,12,14,34,9.70
2011,04,12,14,35,9.80
2011,04,12,14,36,9.90
2011,04,12,14,37,9.90
2011,04,12,14,38,10.00
2011,04,12,14,39,10.10
2011,04,12,14,40,10.10
2011,04,12,14,41,10.10
2011,04,12,14,42,10.10
2011,04,12,14,43,10.10
2011,04,12,14,44,10.10
2011,04,12,14,45,10.20
2011,04,12,14,46,10.20
2011,04,12,14,47,10.20
2011,04,12,14,48,10.20
2011,04,12,14,49,10.20
2011,04,12,14,50,10.30
2011,04,12,14,51,10.30
2011,04,12,14,52,10.30
2011,04,12,14,53,10.20
2011,04,12,14,54,10.10
2011,04,12,14,55,10.10
2011,04,12,14,56,10.10
2011,04,12,14,57,10.10
2011,04,12,14,58,10.20
2011,04,12,14,59,10.30
2011,04,12,15,00,10.30
2011,04,12,15,01,10.40
2011,04,12,15,02,10.50
2011,04,12,15,03,10.60
2011,04,12,15,04,10.70
2011,04,12,15,05,10.80
2011,04,12,15,06,10.80
2011,04,12,15,07,10.80
2011,04,12,15,08,10.70
2011,04,12,15,09,10.50
2011,04,12,15,10,10.40
2011,04,12,15,11,10.40
2011,04,12,15,12,10.30
2011,04,12,15,13,10.30
2011,04,12,15,14,10.20
2011,04,12,15,15,10.10
2011,04,12,15,16,10.20
2011,04,12,15,17,10.40
2011,04,12,15,18,10.40
2011,04,12,15,19,10.40
2011,04,12,15,20,10.50
2011,04,12,15,21,10.60
2011,04,12,15,22,10.70
2011,04,12,15,23,10.80
2011,04,12,15,24,10.90
2011,04,12,15,25,10.90
2011,04,12,15,26,10.90
2011,04,12,15,27,10.90
2011,04,12,15,28,10.90
2011,04,12,15,29,10.90
2011,04,12,15,30,11.00
2011,04,12,15,31,11.10
2011,04,12,15,32,10.90
2011,04,12,15,33,10.80
2011,04,12,15,34,10.70
2011,04,12,15,35,10.60
2011,04,12,15,36,10.60
2011,04,12,15,37,10.60
2011,04,12,15,38,10.60
2011,04,12,15,39,10.70
2011,04,12,15,40,10.70
2011,04,12,15,41,10.70
2011,04,12,15,42,10.70
2011,04,12,15,43,10.70
2011,04,12,15,44,10.70
2011,04,12,15,45,10.70
2011,04,12,15,46,10.60
2011,04,12,15,47,10.60
2011,04,12,15,48,10.50
2011,04,12,15,49,10.40
2011,04,12,15,50,10.40
2011,04,12,15,51,10.30
2011,04,12,15,52,10.30
2011,04,12,15,53,10.30
2011,04,12,15,54,10.30
2011,04,12,15,55,10.30
2011,04,12,15,56,10.30
2011,04,12,15,57,10.20
2011,04,12,15,58,10.20
2011,04,12,15,59,10.20
2011,04,12,16,00,10.20
2011,04,12,16,01,10.10
2011,04,12,16,02,10.10
2011,04,12,16,03,10.10
2011,04,12,16,04,10.10
2011,04,12,16,05,10.10
2011,04,12,16,06,10.10
2011,04,12,16,07,10.10
2011,04,12,16,08,10.20
2011,04,12,16,09,10.30
2011,04,12,16,10,10.40
2011,04,12,16,11,10.40
2011,04,12,16,12,10.40
2011,04,12,16,13,10.40
2011,04,12,16,14,10.50
2011,04,12,16,15,10.60
2011,04,12,16,16,10.60
2011,04,12,16,17,10.60
2011,04,12,16,18,10.60
2011,04,12,16,19,10.60
2011,04,12,16,20,10.60
2011,04,12,16,21,10.60
2011,04,12,16,22,10.60
2011,04,12,16,23,10.60
2011,04,12,16,24,10.60
2011,04,12,16,25,10.60
2011,04,12,16,26,10.60
2011,04,12,16,27,10.60
2011,04,12,16,28,10.60
2011,04,12,16,29,10.60
2011,04,12,16,30,10.60
2011,04,12,16,31,10.70
2011,04,12,16,32,10.70
2011,04,12,16,33,10.70
2011,04,12,16,34,10.70
2011,04,12,16,35,10.60
2011,04,12,16,36,10.60
2011,04,12,16,37,10.60
2011,04,12,16,38,10.60
2011,04,12,16,39,10.60
2011,04,12,16,40,10.60
2011,04,12,16,41,10.60
2011,04,12,16,42,10.60
2011,04,12,16,43,10.60
2011,04,12,16,44,10.60
2011,04,12,16,45,10.60
2011,04,12,16,46,10.60
2011,04,12,16,47,10.60
2011,04,12,16,48,10.60
2011,04,12,16,49,10.60
2011,04,12,16,50,10.60
2011,04,12,16,51,10.60
2011,04,12,16,52,10.60
2011,04,12,16,53,10.60
2011,04,12,16,54,10.60
2011,04,12,16,55,10.60
2011,04,12,16,56,10.60
2011,04,12,16,57,10.60
2011,04,12,16,58,10.60
2011,04,12,16,59,10.60
2011,04,12,17,00,10.60
2011,04,12,17,01,10.50
2011,04,12,17,02,10.40
2011,04,12,17,03,10.40
2011,04,12,17,04,10.40
2011,04,12,17,05,10.40
2011,04,12,17,06,10.40
2011,04,12,17,07,10.40
2011,04,12,17,08,10.50
2011,04,12,17,09,10.60
2011,04,12,17,10,10.60
2011,04,12,17,11,10.50
2011,04,12,17,12,10.40
2011,04,12,17,13,10.40
2011,04,12,17,14,10.40
2011,04,12,17,15,10.40
2011,04,12,17,16,10.40
2011,04,12,17,17,10.30
2011,04,12,17,18,10.30
2011,04,12,17,19,10.30
2011,04,12,17,20,10.30
2011,04,12,17,21,10.30
2011,04,12,17,22,10.30
2011,04,12,17,23,10.30
2011,04,12,17,24,10.30
2011,04,12,17,25,10.20
2011,04,12,17,26,10.20
2011,04,12,17,27,10.20
2011,04,12,17,28,10.20
2011,04,12,17,29,10.20
2011,04,12,17,30,10.20
2011,04,12,17,31,10.20
2011,04,12,17,32,10.20
2011,04,12,17,33,10.20
2011,04,12,17,34,10.30
2011,04,12,17,35,10.30
2011,04,12,17,36,10.30
2011,04,12,17,37,10.30
2011,04,12,17,38,10.20
2011,04,12,17,39,10.20
2011,04,12,17,40,10.10
2011,04,12,17,41,10.10
2011,04,12,17,42,10.10
2011,04,12,17,43,10.10
2011,04,12,17,44,10.10
2011,04,12,17,45,10.10
2011,04,12,17,46,10.10
2011,04,12,17,47,10.10
2011,04,12,17,48,10.10
2011,04,12,17,49,10.10
2011,04,12,17,50,10.10
2011,04,12,17,51,10.10
2011,04,12,17,52,10.10
2011,04,12,17,53,10.10
2011,04,12,17,54,10.10
2011,04,12,17,55,9.90
2011,04,12,17,56,9.90